contact:dominique.lefevre@mio.osupytheas.fr, maurice.libes@osupytheas.fr, didier.mallarino@osupytheas.fr
Project:EMSO http://www.emso-fr.org/EMSO-France
Depth: 2436.0 m
Title:EMSO Ligure Ouest : Data MII capteur CSTAR
DateTime,Latitude,Longitude,Instrument_Serial,Reference_Counts,Signal_Counts,Corrected_Signal_raw_counts,Calculated_Beam_c_inverse_meters,Internal_thermistor_counts
DateTime,Latitude,Longitude,Instrument_Serial,Reference_Counts,Signal_Counts,Corrected_Signal_raw_counts,Calculated_Beam_c_inverse_meters,Internal_thermistor_counts
2021-10-07T00:00:07,42.805,6.029,CST-1368DR,5169,6956,14405,0.323,551
2021-10-07T00:03:09,42.805,6.029,CST-1368DR,5169,6957,14408,0.322,551
2021-10-07T00:06:11,42.805,6.029,CST-1368DR,5169,6956,14405,0.323,551
2021-10-07T00:09:12,42.805,6.029,CST-1368DR,5169,6954,14402,0.324,551
2021-10-07T00:12:14,42.805,6.029,CST-1368DR,5169,6958,14410,0.321,551
2021-10-07T00:15:15,42.805,6.029,CST-1368DR,5169,6958,14410,0.321,551
2021-10-07T00:18:17,42.805,6.029,CST-1368DR,5169,6957,14407,0.322,551
2021-10-07T00:21:18,42.805,6.029,CST-1368DR,5169,6958,14409,0.322,551
2021-10-07T00:24:20,42.805,6.029,CST-1368DR,5169,6957,14408,0.322,551
2021-10-07T00:27:22,42.805,6.029,CST-1368DR,5169,6956,14406,0.323,551
2021-10-07T00:30:23,42.805,6.029,CST-1368DR,5169,6958,14409,0.322,551
2021-10-07T00:33:25,42.805,6.029,CST-1368DR,5169,6957,14408,0.322,551
2021-10-07T00:36:26,42.805,6.029,CST-1368DR,5169,6956,14406,0.323,551
2021-10-07T00:39:28,42.805,6.029,CST-1368DR,5169,6957,14407,0.322,551
2021-10-07T00:42:29,42.805,6.029,CST-1368DR,5169,6956,14405,0.323,551
2021-10-07T00:45:31,42.805,6.029,CST-1368DR,5169,6956,14406,0.323,551
2021-10-07T00:48:33,42.805,6.029,CST-1368DR,5169,6956,14405,0.323,551
2021-10-07T00:51:34,42.805,6.029,CST-1368DR,5169,6957,14408,0.322,551
2021-10-07T00:54:36,42.805,6.029,CST-1368DR,5169,6957,14408,0.322,551
2021-10-07T00:57:37,42.805,6.029,CST-1368DR,5169,6956,14405,0.323,551
2021-10-07T01:00:39,42.805,6.029,CST-1368DR,5169,6956,14406,0.323,551
2021-10-07T01:03:41,42.805,6.029,CST-1368DR,5169,6953,14399,0.325,551
2021-10-07T01:06:42,42.805,6.029,CST-1368DR,5169,6954,14401,0.324,551
2021-10-07T01:09:44,42.805,6.029,CST-1368DR,5169,6954,14402,0.324,551
2021-10-07T01:12:45,42.805,6.029,CST-1368DR,5169,6954,14402,0.324,551
2021-10-07T01:15:47,42.805,6.029,CST-1368DR,5169,6951,14394,0.326,551
2021-10-07T01:18:48,42.805,6.029,CST-1368DR,5169,6957,14408,0.322,551
2021-10-07T01:21:50,42.805,6.029,CST-1368DR,5169,6957,14408,0.322,551
2021-10-07T01:24:52,42.805,6.029,CST-1368DR,5169,6955,14403,0.323,551
2021-10-07T01:27:53,42.805,6.029,CST-1368DR,5169,6957,14407,0.322,551
2021-10-07T01:30:55,42.805,6.029,CST-1368DR,5169,6955,14403,0.323,551
2021-10-07T01:33:56,42.805,6.029,CST-1368DR,5169,6955,14404,0.323,551
2021-10-07T01:36:58,42.805,6.029,CST-1368DR,5169,6955,14404,0.323,551
2021-10-07T01:40:00,42.805,6.029,CST-1368DR,5169,6955,14403,0.323,551
2021-10-07T01:43:01,42.805,6.029,CST-1368DR,5169,6954,14402,0.324,551
2021-10-07T01:46:03,42.805,6.029,CST-1368DR,5169,6949,14392,0.326,551
2021-10-07T01:49:04,42.805,6.029,CST-1368DR,5169,6955,14403,0.323,551
2021-10-07T01:52:06,42.805,6.029,CST-1368DR,5169,6955,14403,0.323,550
2021-10-07T01:55:07,42.805,6.029,CST-1368DR,5169,6954,14402,0.324,551
2021-10-07T01:58:09,42.805,6.029,CST-1368DR,5169,6954,14402,0.324,551
2021-10-07T02:01:11,42.805,6.029,CST-1368DR,5169,6954,14401,0.324,551
2021-10-07T02:04:12,42.805,6.029,CST-1368DR,5169,6954,14401,0.324,551
2021-10-07T02:07:14,42.805,6.029,CST-1368DR,5169,6953,14398,0.325,551
2021-10-07T02:10:15,42.805,6.029,CST-1368DR,5169,6954,14401,0.324,551
2021-10-07T02:13:17,42.805,6.029,CST-1368DR,5169,6956,14405,0.323,551
2021-10-07T02:16:18,42.805,6.029,CST-1368DR,5169,6953,14399,0.325,551
2021-10-07T02:19:20,42.805,6.029,CST-1368DR,5169,6953,14398,0.325,551
2021-10-07T02:22:22,42.805,6.029,CST-1368DR,5169,6952,14397,0.325,551
2021-10-07T02:25:23,42.805,6.029,CST-1368DR,5169,6955,14403,0.323,551
2021-10-07T02:28:25,42.805,6.029,CST-1368DR,5169,6954,14401,0.324,551
2021-10-07T02:31:26,42.805,6.029,CST-1368DR,5168,6951,14397,0.325,551
2021-10-07T02:34:28,42.805,6.029,CST-1368DR,5168,6952,14401,0.324,551
2021-10-07T02:37:30,42.805,6.029,CST-1368DR,5168,6953,14403,0.323,551
2021-10-07T02:40:31,42.805,6.029,CST-1368DR,5168,6954,14404,0.323,551
2021-10-07T02:43:33,42.805,6.029,CST-1368DR,5168,6955,14405,0.323,551
2021-10-07T02:46:34,42.805,6.029,CST-1368DR,5168,6953,14402,0.324,551
2021-10-07T02:49:36,42.805,6.029,CST-1368DR,5168,6954,14404,0.323,551
2021-10-07T02:52:37,42.805,6.029,CST-1368DR,5168,6954,14404,0.323,551
2021-10-07T02:55:39,42.805,6.029,CST-1368DR,5168,6954,14404,0.323,551
2021-10-07T02:58:41,42.805,6.029,CST-1368DR,5168,6954,14404,0.323,551
2021-10-07T03:01:42,42.805,6.029,CST-1368DR,5168,6954,14404,0.323,551
2021-10-07T03:04:44,42.805,6.029,CST-1368DR,5168,6954,14405,0.323,551
2021-10-07T03:07:45,42.805,6.029,CST-1368DR,5168,6954,14405,0.323,551
2021-10-07T03:10:47,42.805,6.029,CST-1368DR,5168,6956,14407,0.322,551
2021-10-07T03:13:48,42.805,6.029,CST-1368DR,5168,6953,14403,0.323,551
2021-10-07T03:16:50,42.805,6.029,CST-1368DR,5168,6953,14402,0.324,551
2021-10-07T03:19:52,42.805,6.029,CST-1368DR,5168,6953,14402,0.324,551
2021-10-07T03:22:53,42.805,6.029,CST-1368DR,5168,6954,14405,0.323,551
2021-10-07T03:25:55,42.805,6.029,CST-1368DR,5168,6954,14404,0.323,551
2021-10-07T03:28:56,42.805,6.029,CST-1368DR,5168,6951,14398,0.325,551
2021-10-07T03:31:58,42.805,6.029,CST-1368DR,5168,6953,14403,0.323,551
2021-10-07T03:35:00,42.805,6.029,CST-1368DR,5168,6954,14403,0.323,551
2021-10-07T03:38:01,42.805,6.029,CST-1368DR,5168,6951,14399,0.325,551
2021-10-07T03:41:03,42.805,6.029,CST-1368DR,5168,6953,14403,0.323,551
2021-10-07T03:44:04,42.805,6.029,CST-1368DR,5168,6954,14403,0.323,551
2021-10-07T03:47:06,42.805,6.029,CST-1368DR,5168,6953,14403,0.323,551
2021-10-07T03:50:07,42.805,6.029,CST-1368DR,5168,6954,14405,0.323,551
2021-10-07T03:53:09,42.805,6.029,CST-1368DR,5168,6955,14405,0.323,551
2021-10-07T03:56:11,42.805,6.029,CST-1368DR,5168,6954,14405,0.323,551
2021-10-07T03:59:12,42.805,6.029,CST-1368DR,5168,6953,14402,0.324,551
2021-10-07T04:02:14,42.805,6.029,CST-1368DR,5168,6954,14404,0.323,551
2021-10-07T04:05:15,42.805,6.029,CST-1368DR,5168,6955,14405,0.323,551
2021-10-07T04:08:17,42.805,6.029,CST-1368DR,5168,6951,14399,0.325,551
2021-10-07T04:11:18,42.805,6.029,CST-1368DR,5168,6953,14403,0.323,551
2021-10-07T04:14:20,42.805,6.029,CST-1368DR,5168,6950,14396,0.325,551
2021-10-07T04:17:22,42.805,6.029,CST-1368DR,5168,6952,14401,0.324,551
2021-10-07T04:20:23,42.805,6.029,CST-1368DR,5168,6954,14403,0.323,550
2021-10-07T04:23:25,42.805,6.029,CST-1368DR,5168,6952,14400,0.324,551
2021-10-07T04:26:26,42.805,6.029,CST-1368DR,5168,6953,14401,0.324,551
2021-10-07T04:29:28,42.805,6.029,CST-1368DR,5168,6953,14402,0.324,551
2021-10-07T04:32:30,42.805,6.029,CST-1368DR,5168,6953,14403,0.323,551
2021-10-07T04:35:31,42.805,6.029,CST-1368DR,5168,6953,14402,0.324,551
2021-10-07T04:38:33,42.805,6.029,CST-1368DR,5168,6954,14404,0.323,551
2021-10-07T04:41:34,42.805,6.029,CST-1368DR,5168,6953,14401,0.324,551
2021-10-07T04:44:36,42.805,6.029,CST-1368DR,5168,6951,14399,0.325,551
2021-10-07T04:47:37,42.805,6.029,CST-1368DR,5168,6953,14401,0.324,551
2021-10-07T04:50:39,42.805,6.029,CST-1368DR,5168,6954,14403,0.323,551
2021-10-07T04:53:41,42.805,6.029,CST-1368DR,5168,6953,14401,0.324,551
2021-10-07T04:56:42,42.805,6.029,CST-1368DR,5168,6952,14401,0.324,551
2021-10-07T04:59:44,42.805,6.029,CST-1368DR,5168,6953,14402,0.324,551
2021-10-07T05:02:45,42.805,6.029,CST-1368DR,5168,6953,14402,0.324,551
2021-10-07T05:05:47,42.805,6.029,CST-1368DR,5168,6953,14402,0.324,551
2021-10-07T05:08:49,42.805,6.029,CST-1368DR,5168,6953,14402,0.324,551
2021-10-07T05:11:50,42.805,6.029,CST-1368DR,5168,6953,14402,0.324,551
2021-10-07T05:14:52,42.805,6.029,CST-1368DR,5168,6953,14402,0.324,551
2021-10-07T05:17:53,42.805,6.029,CST-1368DR,5168,6954,14404,0.323,551
2021-10-07T05:20:55,42.805,6.029,CST-1368DR,5168,6951,14399,0.325,551
2021-10-07T05:23:56,42.805,6.029,CST-1368DR,5168,6952,14401,0.324,551
2021-10-07T05:26:58,42.805,6.029,CST-1368DR,5168,6952,14401,0.324,551
2021-10-07T05:30:00,42.805,6.029,CST-1368DR,5168,6953,14403,0.323,551
2021-10-07T05:33:01,42.805,6.029,CST-1368DR,5168,6952,14399,0.325,551
2021-10-07T05:36:03,42.805,6.029,CST-1368DR,5168,6950,14395,0.326,551
2021-10-07T05:39:04,42.805,6.029,CST-1368DR,5168,6953,14402,0.324,551
2021-10-07T05:42:06,42.805,6.029,CST-1368DR,5168,6954,14403,0.323,551
2021-10-07T05:45:08,42.805,6.029,CST-1368DR,5168,6954,14403,0.323,551
2021-10-07T05:48:09,42.805,6.029,CST-1368DR,5168,6951,14399,0.325,551
2021-10-07T05:51:11,42.805,6.029,CST-1368DR,5168,6951,14397,0.325,551
2021-10-07T05:54:12,42.805,6.029,CST-1368DR,5168,6953,14401,0.324,551
2021-10-07T05:57:14,42.805,6.029,CST-1368DR,5168,6951,14397,0.325,551
2021-10-07T06:00:15,42.805,6.029,CST-1368DR,5168,6951,14398,0.325,551
2021-10-07T06:03:17,42.805,6.029,CST-1368DR,5168,6953,14402,0.324,551
2021-10-07T06:06:19,42.805,6.029,CST-1368DR,5168,6953,14402,0.324,551
2021-10-07T06:09:20,42.805,6.029,CST-1368DR,5168,6953,14403,0.323,551
2021-10-07T06:12:22,42.805,6.029,CST-1368DR,5168,6951,14397,0.325,551
2021-10-07T06:15:23,42.805,6.029,CST-1368DR,5168,6957,14409,0.322,551
2021-10-07T06:18:25,42.805,6.029,CST-1368DR,5168,6958,14412,0.321,551
2021-10-07T06:21:26,42.805,6.029,CST-1368DR,5168,6957,14411,0.321,551
2021-10-07T06:24:28,42.805,6.029,CST-1368DR,5168,6958,14413,0.321,551
2021-10-07T06:27:30,42.805,6.029,CST-1368DR,5168,6958,14412,0.321,551
2021-10-07T06:30:31,42.805,6.029,CST-1368DR,5168,6958,14412,0.321,551
2021-10-07T06:33:33,42.805,6.029,CST-1368DR,5168,6958,14411,0.321,551
2021-10-07T06:36:34,42.805,6.029,CST-1368DR,5168,6957,14410,0.321,551
2021-10-07T06:39:36,42.805,6.029,CST-1368DR,5168,6956,14408,0.322,551
2021-10-07T06:42:38,42.805,6.029,CST-1368DR,5168,6955,14406,0.323,551
2021-10-07T06:45:39,42.805,6.029,CST-1368DR,5168,6957,14409,0.322,551
2021-10-07T06:48:41,42.805,6.029,CST-1368DR,5168,6957,14411,0.321,551
2021-10-07T06:51:42,42.805,6.029,CST-1368DR,5168,6957,14410,0.321,551
2021-10-07T06:54:44,42.805,6.029,CST-1368DR,5168,6954,14404,0.323,551
2021-10-07T06:57:45,42.805,6.029,CST-1368DR,5168,6956,14408,0.322,551
2021-10-07T07:00:47,42.805,6.029,CST-1368DR,5168,6957,14410,0.321,551
2021-10-07T07:03:49,42.805,6.029,CST-1368DR,5168,6957,14410,0.321,551
2021-10-07T07:06:50,42.805,6.029,CST-1368DR,5168,6956,14408,0.322,551
2021-10-07T07:09:52,42.805,6.029,CST-1368DR,5168,6957,14409,0.322,551
2021-10-07T07:12:53,42.805,6.029,CST-1368DR,5168,6956,14409,0.322,550
2021-10-07T07:15:55,42.805,6.029,CST-1368DR,5168,6956,14408,0.322,551
2021-10-07T07:18:56,42.805,6.029,CST-1368DR,5168,6958,14411,0.321,551
2021-10-07T07:21:58,42.805,6.029,CST-1368DR,5168,6956,14407,0.322,551
2021-10-07T07:25:00,42.805,6.029,CST-1368DR,5168,6954,14405,0.323,551
2021-10-07T07:28:01,42.805,6.029,CST-1368DR,5168,6955,14406,0.323,551
2021-10-07T07:31:03,42.805,6.029,CST-1368DR,5168,6954,14404,0.323,551
2021-10-07T07:34:04,42.805,6.029,CST-1368DR,5168,6953,14402,0.324,551
2021-10-07T07:37:06,42.805,6.029,CST-1368DR,5168,6954,14403,0.323,551
2021-10-07T07:40:08,42.805,6.029,CST-1368DR,5168,6955,14405,0.323,551
2021-10-07T07:43:09,42.805,6.029,CST-1368DR,5168,6957,14410,0.321,551
2021-10-07T07:46:11,42.805,6.029,CST-1368DR,5168,6954,14404,0.323,551
2021-10-07T07:49:12,42.805,6.029,CST-1368DR,5168,6955,14405,0.323,551
2021-10-07T07:52:14,42.805,6.029,CST-1368DR,5168,6956,14409,0.322,551
2021-10-07T07:55:15,42.805,6.029,CST-1368DR,5168,6958,14411,0.321,551
2021-10-07T07:58:17,42.805,6.029,CST-1368DR,5168,6957,14410,0.321,551
2021-10-07T08:01:19,42.805,6.029,CST-1368DR,5168,6957,14410,0.321,551
2021-10-07T08:04:20,42.805,6.029,CST-1368DR,5168,6957,14410,0.321,551
2021-10-07T08:07:22,42.805,6.029,CST-1368DR,5168,6958,14411,0.321,551
2021-10-07T08:10:23,42.805,6.029,CST-1368DR,5168,6958,14412,0.321,551
2021-10-07T08:13:25,42.805,6.029,CST-1368DR,5168,6956,14408,0.322,551
2021-10-07T08:16:27,42.805,6.029,CST-1368DR,5168,6958,14411,0.321,551
2021-10-07T08:19:28,42.805,6.029,CST-1368DR,5168,6958,14412,0.321,551
2021-10-07T08:22:30,42.805,6.029,CST-1368DR,5168,6957,14409,0.322,551
2021-10-07T08:25:31,42.805,6.029,CST-1368DR,5168,6957,14410,0.321,551
2021-10-07T08:28:33,42.805,6.029,CST-1368DR,5168,6959,14414,0.320,551
2021-10-07T08:31:34,42.805,6.029,CST-1368DR,5168,6958,14413,0.321,551
2021-10-07T08:34:36,42.805,6.029,CST-1368DR,5168,6958,14411,0.321,551
2021-10-07T08:37:38,42.805,6.029,CST-1368DR,5168,6957,14410,0.321,551
2021-10-07T08:40:39,42.805,6.029,CST-1368DR,5168,6957,14410,0.321,551
2021-10-07T08:43:41,42.805,6.029,CST-1368DR,5168,6958,14411,0.321,551
2021-10-07T08:46:42,42.805,6.029,CST-1368DR,5168,6957,14411,0.321,551
2021-10-07T08:49:44,42.805,6.029,CST-1368DR,5168,6955,14405,0.323,551
2021-10-07T08:52:45,42.805,6.029,CST-1368DR,5168,6956,14407,0.322,551
2021-10-07T08:55:47,42.805,6.029,CST-1368DR,5168,6957,14410,0.321,551
2021-10-07T08:58:49,42.805,6.029,CST-1368DR,5168,6956,14408,0.322,551
2021-10-07T09:01:50,42.805,6.029,CST-1368DR,5168,6956,14408,0.322,551
2021-10-07T09:04:52,42.805,6.029,CST-1368DR,5168,6956,14409,0.322,551
2021-10-07T09:07:53,42.805,6.029,CST-1368DR,5168,6958,14412,0.321,551
2021-10-07T09:10:55,42.805,6.029,CST-1368DR,5168,6957,14410,0.321,551
2021-10-07T09:13:57,42.805,6.029,CST-1368DR,5168,6957,14410,0.321,551
2021-10-07T09:16:58,42.805,6.029,CST-1368DR,5168,6957,14410,0.321,551
2021-10-07T09:20:00,42.805,6.029,CST-1368DR,5168,6956,14408,0.322,551
2021-10-07T09:23:01,42.805,6.029,CST-1368DR,5168,6957,14410,0.321,551
2021-10-07T09:26:03,42.805,6.029,CST-1368DR,5168,6957,14411,0.321,551
2021-10-07T09:29:04,42.805,6.029,CST-1368DR,5168,6957,14410,0.321,551
2021-10-07T09:32:06,42.805,6.029,CST-1368DR,5168,6958,14411,0.321,551
2021-10-07T09:35:08,42.805,6.029,CST-1368DR,5168,6957,14410,0.321,551
2021-10-07T09:38:09,42.805,6.029,CST-1368DR,5168,6957,14411,0.321,551
2021-10-07T09:41:11,42.805,6.029,CST-1368DR,5168,6957,14410,0.321,551
2021-10-07T09:44:12,42.805,6.029,CST-1368DR,5168,6957,14410,0.321,551
2021-10-07T09:47:14,42.805,6.029,CST-1368DR,5168,6958,14412,0.321,551
2021-10-07T09:50:16,42.805,6.029,CST-1368DR,5168,6957,14410,0.321,551
2021-10-07T09:53:17,42.805,6.029,CST-1368DR,5168,6957,14410,0.321,551
2021-10-07T09:56:19,42.805,6.029,CST-1368DR,5168,6958,14412,0.321,551
2021-10-07T09:59:20,42.805,6.029,CST-1368DR,5168,6958,14412,0.321,551
2021-10-07T10:02:22,42.805,6.029,CST-1368DR,5168,6958,14411,0.321,551
2021-10-07T10:05:23,42.805,6.029,CST-1368DR,5168,6957,14410,0.321,551
2021-10-07T10:08:25,42.805,6.029,CST-1368DR,5168,6957,14410,0.321,551
2021-10-07T10:11:27,42.805,6.029,CST-1368DR,5168,6957,14411,0.321,551
2021-10-07T10:14:28,42.805,6.029,CST-1368DR,5168,6957,14409,0.322,551
2021-10-07T10:17:30,42.805,6.029,CST-1368DR,5168,6956,14408,0.322,551
2021-10-07T10:20:31,42.805,6.029,CST-1368DR,5168,6958,14412,0.321,551
2021-10-07T10:23:33,42.805,6.029,CST-1368DR,5168,6955,14406,0.323,551
2021-10-07T10:26:34,42.805,6.029,CST-1368DR,5168,6957,14410,0.321,551
2021-10-07T10:29:36,42.805,6.029,CST-1368DR,5168,6957,14410,0.321,551
2021-10-07T10:32:38,42.805,6.029,CST-1368DR,5168,6958,14411,0.321,551
2021-10-07T10:35:39,42.805,6.029,CST-1368DR,5168,6957,14411,0.321,551
2021-10-07T10:38:41,42.805,6.029,CST-1368DR,5168,6956,14409,0.322,551
2021-10-07T10:41:42,42.805,6.029,CST-1368DR,5168,6956,14408,0.322,551
2021-10-07T10:44:44,42.805,6.029,CST-1368DR,5168,6959,14415,0.320,551
2021-10-07T10:47:46,42.805,6.029,CST-1368DR,5168,6958,14412,0.321,551
2021-10-07T10:50:47,42.805,6.029,CST-1368DR,5168,6958,14412,0.321,551
2021-10-07T10:53:49,42.805,6.029,CST-1368DR,5168,6958,14411,0.321,551
2021-10-07T10:56:50,42.805,6.029,CST-1368DR,5168,6959,14414,0.320,551
2021-10-07T10:59:52,42.805,6.029,CST-1368DR,5168,6958,14413,0.321,551
2021-10-07T11:02:53,42.805,6.029,CST-1368DR,5168,6959,14414,0.320,551
2021-10-07T11:05:55,42.805,6.029,CST-1368DR,5168,6959,14415,0.320,551
2021-10-07T11:08:57,42.805,6.029,CST-1368DR,5168,6958,14413,0.321,551
2021-10-07T11:11:58,42.805,6.029,CST-1368DR,5168,6958,14413,0.321,551
2021-10-07T11:20:07,42.805,6.029,CST-1368DR,5168,6959,14414,0.320,551
2021-10-07T11:23:08,42.805,6.029,CST-1368DR,5168,6959,14415,0.320,551
2021-10-07T11:26:10,42.805,6.029,CST-1368DR,5168,6958,14412,0.321,551
2021-10-07T11:29:12,42.805,6.029,CST-1368DR,5168,6958,14411,0.321,551
2021-10-07T11:32:13,42.805,6.029,CST-1368DR,5168,6958,14412,0.321,551
2021-10-07T11:35:15,42.805,6.029,CST-1368DR,5168,6959,14415,0.320,551
2021-10-07T11:38:16,42.805,6.029,CST-1368DR,5168,6958,14413,0.321,551
2021-10-07T11:41:18,42.805,6.029,CST-1368DR,5168,6958,14412,0.321,551
2021-10-07T11:44:19,42.805,6.029,CST-1368DR,5168,6958,14412,0.321,551
2021-10-07T11:47:21,42.805,6.029,CST-1368DR,5168,6954,14404,0.323,551
2021-10-07T11:50:23,42.805,6.029,CST-1368DR,5168,6956,14409,0.322,551
2021-10-07T11:53:24,42.805,6.029,CST-1368DR,5168,6957,14411,0.321,551
2021-10-07T11:56:26,42.805,6.029,CST-1368DR,5168,6958,14413,0.321,551
2021-10-07T11:59:27,42.805,6.029,CST-1368DR,5168,6958,14412,0.321,551
2021-10-07T12:02:29,42.805,6.029,CST-1368DR,5168,6958,14413,0.321,551
2021-10-07T12:05:31,42.805,6.029,CST-1368DR,5168,6959,14415,0.320,551
2021-10-07T12:08:32,42.805,6.029,CST-1368DR,5168,6958,14413,0.321,551
2021-10-07T12:11:34,42.805,6.029,CST-1368DR,5168,6958,14413,0.321,551
2021-10-07T12:14:35,42.805,6.029,CST-1368DR,5168,6958,14412,0.321,551
2021-10-07T12:17:37,42.805,6.029,CST-1368DR,5168,6958,14412,0.321,551
2021-10-07T12:20:38,42.805,6.029,CST-1368DR,5168,6959,14415,0.320,551
2021-10-07T12:23:40,42.805,6.029,CST-1368DR,5168,6958,14413,0.321,551
2021-10-07T12:26:42,42.805,6.029,CST-1368DR,5168,6958,14412,0.321,551
2021-10-07T12:29:43,42.805,6.029,CST-1368DR,5168,6958,14412,0.321,551
2021-10-07T12:32:45,42.805,6.029,CST-1368DR,5168,6959,14415,0.320,551
2021-10-07T12:35:46,42.805,6.029,CST-1368DR,5168,6959,14415,0.320,551
2021-10-07T12:38:48,42.805,6.029,CST-1368DR,5168,6959,14415,0.320,551
2021-10-07T12:41:49,42.805,6.029,CST-1368DR,5168,6960,14416,0.320,551
2021-10-07T12:44:51,42.805,6.029,CST-1368DR,5168,6959,14414,0.320,551
2021-10-07T12:47:53,42.805,6.029,CST-1368DR,5168,6960,14416,0.320,551
2021-10-07T12:50:54,42.805,6.029,CST-1368DR,5168,6960,14416,0.320,551
2021-10-07T12:53:56,42.805,6.029,CST-1368DR,5168,6959,14415,0.320,551
2021-10-07T12:56:57,42.805,6.029,CST-1368DR,5168,6957,14410,0.321,551
2021-10-07T12:59:59,42.805,6.029,CST-1368DR,5168,6960,14416,0.320,551
2021-10-07T13:03:01,42.805,6.029,CST-1368DR,5168,6960,14416,0.320,551
2021-10-07T13:06:02,42.805,6.029,CST-1368DR,5168,6959,14415,0.320,551
2021-10-07T13:09:04,42.805,6.029,CST-1368DR,5168,6959,14415,0.320,551
2021-10-07T13:12:05,42.805,6.029,CST-1368DR,5168,6959,14415,0.320,551
2021-10-07T13:15:07,42.805,6.029,CST-1368DR,5168,6959,14415,0.320,551
2021-10-07T13:18:08,42.805,6.029,CST-1368DR,5168,6960,14416,0.320,551
2021-10-07T13:21:10,42.805,6.029,CST-1368DR,5168,6960,14416,0.320,551
2021-10-07T13:24:12,42.805,6.029,CST-1368DR,5168,6959,14415,0.320,551
2021-10-07T13:27:13,42.805,6.029,CST-1368DR,5168,6960,14416,0.320,551
2021-10-07T13:30:15,42.805,6.029,CST-1368DR,5168,6960,14416,0.320,551
2021-10-07T13:33:16,42.805,6.029,CST-1368DR,5168,6959,14415,0.320,551
2021-10-07T13:36:18,42.805,6.029,CST-1368DR,5168,6960,14416,0.320,551
2021-10-07T13:39:20,42.805,6.029,CST-1368DR,5168,6959,14415,0.320,551
2021-10-07T13:42:21,42.805,6.029,CST-1368DR,5168,6959,14415,0.320,551
2021-10-07T13:45:23,42.805,6.029,CST-1368DR,5168,6960,14416,0.320,551
2021-10-07T13:48:24,42.805,6.029,CST-1368DR,5168,6959,14415,0.320,551
2021-10-07T13:51:26,42.805,6.029,CST-1368DR,5168,6957,14410,0.321,551
2021-10-07T13:54:27,42.805,6.029,CST-1368DR,5168,6958,14412,0.321,551
2021-10-07T13:57:29,42.805,6.029,CST-1368DR,5168,6958,14412,0.321,551
2021-10-07T14:00:31,42.805,6.029,CST-1368DR,5168,6959,14415,0.320,551
2021-10-07T14:03:32,42.805,6.029,CST-1368DR,5168,6960,14416,0.320,551
2021-10-07T14:06:34,42.805,6.029,CST-1368DR,5167,6960,14419,0.319,551
2021-10-07T14:09:35,42.805,6.029,CST-1368DR,5168,6959,14414,0.320,551
2021-10-07T14:12:37,42.805,6.029,CST-1368DR,5168,6960,14417,0.320,551
2021-10-07T14:15:39,42.805,6.029,CST-1368DR,5167,6960,14419,0.319,551
2021-10-07T14:18:40,42.805,6.029,CST-1368DR,5168,6959,14415,0.320,551
2021-10-07T14:21:42,42.805,6.029,CST-1368DR,5168,6960,14416,0.320,551
2021-10-07T14:24:43,42.805,6.029,CST-1368DR,5168,6960,14416,0.320,551
2021-10-07T14:27:45,42.805,6.029,CST-1368DR,5168,6960,14416,0.320,551
2021-10-07T14:30:46,42.805,6.029,CST-1368DR,5168,6959,14415,0.320,551
2021-10-07T14:33:48,42.805,6.029,CST-1368DR,5168,6959,14415,0.320,551
2021-10-07T14:36:50,42.805,6.029,CST-1368DR,5168,6959,14415,0.320,551
2021-10-07T14:39:51,42.805,6.029,CST-1368DR,5168,6960,14417,0.320,551
2021-10-07T14:42:53,42.805,6.029,CST-1368DR,5168,6960,14417,0.320,551
2021-10-07T14:45:54,42.805,6.029,CST-1368DR,5168,6960,14416,0.320,551
2021-10-07T14:48:56,42.805,6.029,CST-1368DR,5168,6960,14417,0.320,551
2021-10-07T14:51:57,42.805,6.029,CST-1368DR,5168,6960,14417,0.320,551
2021-10-07T14:54:59,42.805,6.029,CST-1368DR,5168,6960,14416,0.320,551
2021-10-07T14:58:01,42.805,6.029,CST-1368DR,5168,6960,14417,0.320,551
2021-10-07T15:01:02,42.805,6.029,CST-1368DR,5167,6960,14419,0.319,551
2021-10-07T15:04:04,42.805,6.029,CST-1368DR,5168,6960,14417,0.320,551
2021-10-07T15:07:05,42.805,6.029,CST-1368DR,5168,6960,14417,0.320,551
2021-10-07T15:10:07,42.805,6.029,CST-1368DR,5167,6960,14420,0.319,551
2021-10-07T15:13:09,42.805,6.029,CST-1368DR,5168,6959,14415,0.320,551
2021-10-07T15:16:10,42.805,6.029,CST-1368DR,5168,6960,14417,0.320,551
2021-10-07T15:19:12,42.805,6.029,CST-1368DR,5168,6960,14416,0.320,551
2021-10-07T15:22:13,42.805,6.029,CST-1368DR,5168,6959,14415,0.320,551
2021-10-07T15:25:15,42.805,6.029,CST-1368DR,5168,6960,14417,0.320,551
2021-10-07T15:28:16,42.805,6.029,CST-1368DR,5168,6959,14415,0.320,551
2021-10-07T15:31:18,42.805,6.029,CST-1368DR,5168,6960,14417,0.320,551
2021-10-07T15:34:20,42.805,6.029,CST-1368DR,5168,6960,14416,0.320,551
2021-10-07T15:37:21,42.805,6.029,CST-1368DR,5167,6960,14419,0.319,551
2021-10-07T15:40:23,42.805,6.029,CST-1368DR,5168,6959,14415,0.320,551
2021-10-07T15:43:24,42.805,6.029,CST-1368DR,5168,6960,14417,0.320,551
2021-10-07T15:46:26,42.805,6.029,CST-1368DR,5168,6960,14416,0.320,551
2021-10-07T15:49:27,42.805,6.029,CST-1368DR,5167,6960,14418,0.319,551
2021-10-07T15:52:29,42.805,6.029,CST-1368DR,5167,6959,14417,0.320,551
2021-10-07T15:55:31,42.805,6.029,CST-1368DR,5167,6961,14420,0.319,551
2021-10-07T15:58:32,42.805,6.029,CST-1368DR,5167,6960,14419,0.319,551
2021-10-07T16:01:34,42.805,6.029,CST-1368DR,5167,6960,14419,0.319,551
2021-10-07T16:04:35,42.805,6.029,CST-1368DR,5168,6959,14415,0.320,551
2021-10-07T16:07:37,42.805,6.029,CST-1368DR,5168,6959,14415,0.320,551
2021-10-07T16:10:39,42.805,6.029,CST-1368DR,5167,6960,14419,0.319,551
2021-10-07T16:13:40,42.805,6.029,CST-1368DR,5167,6960,14418,0.319,551
2021-10-07T16:16:42,42.805,6.029,CST-1368DR,5167,6960,14418,0.319,551
2021-10-07T16:19:43,42.805,6.029,CST-1368DR,5167,6960,14419,0.319,551
2021-10-07T16:22:45,42.805,6.029,CST-1368DR,5167,6960,14418,0.319,551
2021-10-07T16:25:46,42.805,6.029,CST-1368DR,5167,6960,14418,0.319,551
2021-10-07T16:28:48,42.805,6.029,CST-1368DR,5167,6959,14418,0.319,551
2021-10-07T16:31:50,42.805,6.029,CST-1368DR,5167,6960,14420,0.319,551
2021-10-07T16:34:51,42.805,6.029,CST-1368DR,5167,6960,14420,0.319,551
2021-10-07T16:37:53,42.805,6.029,CST-1368DR,5167,6959,14417,0.320,551
2021-10-07T16:40:54,42.805,6.029,CST-1368DR,5167,6959,14418,0.319,551
2021-10-07T16:43:56,42.805,6.029,CST-1368DR,5167,6959,14417,0.320,551
2021-10-07T16:46:58,42.805,6.029,CST-1368DR,5167,6960,14418,0.319,551
2021-10-07T16:49:59,42.805,6.029,CST-1368DR,5167,6959,14417,0.320,551
2021-10-07T16:53:01,42.805,6.029,CST-1368DR,5167,6957,14413,0.321,551
2021-10-07T16:56:02,42.805,6.029,CST-1368DR,5167,6959,14417,0.320,551